EZY232 EGAC-EGGD

Flight info

Callsign EZY232
Flight time 0h 43m
Altitude 33000
Route DUFFY L10 RINGA Q39 BABGU DCT ETIGA DCT INKOB Q39 NOMSU UQ4 WAL N862 KARNO/N0440F320 DCT ALHUP DCT LUCSA/N0394F230 N862 WEVBE
Aircraft A320/M-SDE3FGHIRWY/LB1

Departure

Time 2026-04-21 14:52
Airport George Best Belfast City Airport (EGAC)

Arrival

Time 2026-04-21 15:35
Airport Bristol Airport (EGGD)
Time Latitude Longitude Altitude Speed Heading
2026-04-21 14:29 54.61508 -5.87149 24 ft 0 kts 154°
2026-04-21 14:47 54.61516 -5.87156 23 ft 4 kts 159°
2026-04-21 14:47 54.61541 -5.87167 22 ft 2 kts 169°
2026-04-21 14:47 54.61544 -5.87167 22 ft 0 kts 169°
2026-04-21 14:49 54.61541 -5.87167 22 ft 3 kts 174°
2026-04-21 14:49 54.61494 -5.87239 52 ft 12 kts 229°
2026-04-21 14:49 54.61438 -5.87337 51 ft 11 kts 220°
2026-04-21 14:49 54.61390 -5.87430 51 ft 10 kts 232°
2026-04-21 14:50 54.61355 -5.87481 51 ft 11 kts 218°
2026-04-21 14:50 54.61236 -5.87620 50 ft 17 kts 214°
2026-04-21 14:50 54.61143 -5.87729 50 ft 16 kts 214°
2026-04-21 14:50 54.61083 -5.87862 51 ft 14 kts 267°
2026-04-21 14:51 54.61125 -5.88002 50 ft 13 kts 321°
2026-04-21 14:51 54.61202 -5.87977 50 ft 15 kts 33°
2026-04-21 14:51 54.61460 -5.87670 47 ft 84 kts 35°
2026-04-21 14:51 54.62118 -5.86873 58 ft 146 kts 40°
2026-04-21 14:52 54.62963 -5.85797 703 ft 151 kts 41°
2026-04-21 14:52 54.63810 -5.84719 1529 ft 157 kts 41°
2026-04-21 14:52 54.64754 -5.83527 2023 ft 178 kts 45°
2026-04-21 14:52 54.65523 -5.81764 2451 ft 195 kts 76°
2026-04-21 14:53 54.65566 -5.79326 2951 ft 219 kts 105°
2026-04-21 14:53 54.64671 -5.77104 3700 ft 239 kts 141°
2026-04-21 14:53 54.63176 -5.75733 4731 ft 246 kts 149°
2026-04-21 14:53 54.61614 -5.74471 5783 ft 249 kts 150°
2026-04-21 14:54 54.60022 -5.73216 6754 ft 254 kts 150°
2026-04-21 14:54 54.58402 -5.71941 7700 ft 258 kts 151°
2026-04-21 14:54 54.56765 -5.70647 8703 ft 259 kts 151°
2026-04-21 14:54 54.55117 -5.69333 9695 ft 262 kts 152°
2026-04-21 14:55 54.53451 -5.67994 10583 ft 267 kts 152°
2026-04-21 14:55 54.51696 -5.66577 10966 ft 290 kts 152°
2026-04-21 14:55 54.49792 -5.65043 11299 ft 312 kts 153°
2026-04-21 14:55 54.47793 -5.63443 11984 ft 320 kts 153°
2026-04-21 14:56 54.45760 -5.61825 12770 ft 324 kts 153°
2026-04-21 14:56 54.43706 -5.60189 13624 ft 326 kts 153°
2026-04-21 14:56 54.41663 -5.58471 14430 ft 328 kts 148°
2026-04-21 14:56 54.39813 -5.56163 15140 ft 331 kts 137°
2026-04-21 14:57 54.38263 -5.53223 15824 ft 335 kts 126°
2026-04-21 14:57 54.36921 -5.49900 16417 ft 342 kts 125°
2026-04-21 14:57 54.35559 -5.46515 17052 ft 347 kts 125°
2026-04-21 14:57 54.34170 -5.43078 17652 ft 353 kts 125°
2026-04-21 14:58 54.32759 -5.39608 18328 ft 357 kts 125°
2026-04-21 14:58 54.31336 -5.36121 18979 ft 359 kts 125°
2026-04-21 14:58 54.29891 -5.32592 19515 ft 364 kts 125°
2026-04-21 14:58 54.28427 -5.29016 20021 ft 369 kts 125°
2026-04-21 14:59 54.26914 -5.25428 20437 ft 377 kts 127°
2026-04-21 14:59 54.25280 -5.21865 20848 ft 384 kts 129°
2026-04-21 14:59 54.23560 -5.18308 21278 ft 391 kts 130°
2026-04-21 14:59 54.21793 -5.14729 21700 ft 397 kts 130°
2026-04-21 15:00 54.19993 -5.11093 22124 ft 404 kts 131°
2026-04-21 15:00 54.18163 -5.07381 22451 ft 413 kts 130°
2026-04-21 15:00 54.16307 -5.03591 22921 ft 417 kts 130°
2026-04-21 15:00 54.14470 -4.99811 23338 ft 423 kts 130°
2026-04-21 15:01 54.12561 -4.95864 23741 ft 429 kts 130°
2026-04-21 15:01 54.10652 -4.91913 24134 ft 434 kts 130°
2026-04-21 15:01 54.08744 -4.87969 24492 ft 439 kts 131°
2026-04-21 15:01 54.06788 -4.83940 24865 ft 443 kts 131°
2026-04-21 15:02 54.04812 -4.79887 25226 ft 447 kts 131°
2026-04-21 15:02 54.02842 -4.75761 25587 ft 451 kts 130°
2026-04-21 15:02 54.00918 -4.71523 25979 ft 454 kts 128°
2026-04-21 15:02 53.99021 -4.67213 26393 ft 456 kts 128°
2026-04-21 15:03 53.97130 -4.62872 26762 ft 459 kts 128°
2026-04-21 15:03 53.95218 -4.58495 27113 ft 463 kts 128°
2026-04-21 15:03 53.93283 -4.54100 27461 ft 467 kts 128°
2026-04-21 15:03 53.91320 -4.49690 27797 ft 470 kts 129°
2026-04-21 15:04 53.89321 -4.45247 27993 ft 477 kts 129°
2026-04-21 15:04 53.87286 -4.40752 28224 ft 483 kts 129°
2026-04-21 15:04 53.85262 -4.36159 28529 ft 488 kts 128°
2026-04-21 15:04 53.83290 -4.31444 28850 ft 492 kts 127°
2026-04-21 15:05 53.81351 -4.26632 29162 ft 496 kts 126°
2026-04-21 15:05 53.78134 -4.18533 29664 ft 502 kts 126°
2026-04-21 15:05 53.75503 -4.11983 30098 ft 505 kts 126°
2026-04-21 15:06 53.73529 -4.07150 30406 ft 507 kts 127°
2026-04-21 15:06 53.71502 -4.02254 30663 ft 510 kts 127°
2026-04-21 15:06 53.69454 -3.97349 30967 ft 511 kts 127°
2026-04-21 15:06 53.67408 -3.92454 31287 ft 511 kts 127°
2026-04-21 15:07 53.66025 -3.89144 31514 ft 511 kts 127°
2026-04-21 15:07 53.63978 -3.84246 31891 ft 510 kts 127°
2026-04-21 15:07 53.61290 -3.77797 32469 ft 507 kts 127°
2026-04-21 15:07 53.59923 -3.74516 32769 ft 505 kts 127°
2026-04-21 15:08 53.59205 -3.72796 32948 ft 503 kts 127°
2026-04-21 15:08 53.57194 -3.67988 33318 ft 501 kts 127°
2026-04-21 15:08 53.53206 -3.58505 33410 ft 491 kts 127°
2026-04-21 15:09 53.49291 -3.49254 33403 ft 487 kts 127°
2026-04-21 15:09 53.45821 -3.39500 33406 ft 488 kts 113°
2026-04-21 15:10 53.43174 -3.29012 33396 ft 488 kts 113°
2026-04-21 15:10 53.40015 -3.18977 33386 ft 486 kts 128°
2026-04-21 15:11 53.35289 -3.11036 33377 ft 480 kts 147°
2026-04-21 15:11 53.29508 -3.05670 33386 ft 473 kts 158°
2026-04-21 15:12 53.23566 -3.00931 33387 ft 473 kts 158°
2026-04-21 15:12 53.17624 -2.96200 33363 ft 473 kts 158°
2026-04-21 15:13 53.11655 -2.91525 33358 ft 473 kts 162°
2026-04-21 15:13 53.05405 -2.88905 33359 ft 463 kts 180°
2026-04-21 15:14 52.98942 -2.88850 33011 ft 475 kts 188°
2026-04-21 15:14 52.95601 -2.89128 32721 ft 482 kts 189°
2026-04-21 15:14 52.92287 -2.89459 32451 ft 471 kts 190°
2026-04-21 15:15 52.89048 -2.89865 32186 ft 463 kts 194°
2026-04-21 15:15 52.85872 -2.90638 31254 ft 464 kts 196°
2026-04-21 15:15 52.82656 -2.91437 29969 ft 474 kts 196°
2026-04-21 15:15 52.79370 -2.92241 28832 ft 478 kts 195°
2026-04-21 15:16 52.76109 -2.93007 28261 ft 469 kts 194°
2026-04-21 15:16 52.72904 -2.93745 27596 ft 462 kts 194°
2026-04-21 15:16 52.69715 -2.94254 26952 ft 460 kts 188°
2026-04-21 15:16 52.66535 -2.94498 26309 ft 455 kts 188°
2026-04-21 15:17 52.63388 -2.94746 25681 ft 450 kts 187°
2026-04-21 15:17 52.60263 -2.94998 25052 ft 446 kts 187°
2026-04-21 15:17 52.57215 -2.95250 24460 ft 442 kts 187°
2026-04-21 15:17 52.54158 -2.95505 23872 ft 438 kts 186°
2026-04-21 15:18 52.51132 -2.95757 23249 ft 432 kts 186°
2026-04-21 15:18 52.48157 -2.96005 22733 ft 425 kts 186°
2026-04-21 15:18 52.45227 -2.96250 22234 ft 418 kts 186°
2026-04-21 15:18 52.42349 -2.96492 21755 ft 411 kts 186°
2026-04-21 15:19 52.39508 -2.96728 21285 ft 405 kts 185°
2026-04-21 15:19 52.36714 -2.96958 20803 ft 400 kts 185°
2026-04-21 15:19 52.33952 -2.97180 20310 ft 395 kts 185°
2026-04-21 15:19 52.31216 -2.97401 19831 ft 392 kts 186°
2026-04-21 15:20 52.28504 -2.97626 19347 ft 389 kts 185°
2026-04-21 15:20 52.25811 -2.97851 18849 ft 386 kts 183°
2026-04-21 15:20 52.23135 -2.98069 18305 ft 384 kts 184°
2026-04-21 15:20 52.20496 -2.98190 18093 ft 373 kts 181°
2026-04-21 15:21 52.17945 -2.98147 18002 ft 362 kts 179°
2026-04-21 15:21 52.15436 -2.98014 17698 ft 360 kts 178°
2026-04-21 15:21 52.12938 -2.97844 17197 ft 358 kts 177°
2026-04-21 15:21 52.10449 -2.97675 16698 ft 357 kts 177°
2026-04-21 15:22 52.07968 -2.97525 16201 ft 356 kts 177°
2026-04-21 15:22 52.05497 -2.97400 15704 ft 355 kts 177°
2026-04-21 15:22 52.03030 -2.97291 15236 ft 354 kts 177°
2026-04-21 15:22 52.00572 -2.97194 14766 ft 353 kts 177°
2026-04-21 15:23 51.98123 -2.97098 14272 ft 351 kts 177°
2026-04-21 15:23 51.95686 -2.97000 13739 ft 350 kts 177°
2026-04-21 15:23 51.93264 -2.96900 13244 ft 346 kts 176°
2026-04-21 15:23 51.90862 -2.96802 12758 ft 343 kts 176°
2026-04-21 15:24 51.88484 -2.96705 12260 ft 340 kts 175°
2026-04-21 15:24 51.86130 -2.96608 11765 ft 337 kts 175°
2026-04-21 15:24 51.83788 -2.96508 11261 ft 336 kts 176°
2026-04-21 15:24 51.81462 -2.96406 10924 ft 329 kts 176°
2026-04-21 15:25 51.79222 -2.96316 10798 ft 316 kts 177°
2026-04-21 15:25 51.77069 -2.96238 10677 ft 303 kts 176°
2026-04-21 15:25 51.74997 -2.96164 10531 ft 293 kts 174°
2026-04-21 15:25 51.72976 -2.96085 10308 ft 287 kts 174°
2026-04-21 15:26 51.70975 -2.95996 9955 ft 289 kts 175°
2026-04-21 15:26 51.68973 -2.95906 9577 ft 286 kts 175°
2026-04-21 15:26 51.66968 -2.95815 9108 ft 286 kts 174°
2026-04-21 15:26 51.65001 -2.95730 8776 ft 282 kts 175°
2026-04-21 15:27 51.63044 -2.95650 8399 ft 279 kts 173°
2026-04-21 15:27 51.61109 -2.95571 7967 ft 277 kts 173°
2026-04-21 15:27 51.59204 -2.95494 7338 ft 272 kts 173°
2026-04-21 15:27 51.57316 -2.95414 6658 ft 269 kts 172°
2026-04-21 15:28 51.55455 -2.95332 5942 ft 266 kts 172°
2026-04-21 15:28 51.53608 -2.95251 5221 ft 264 kts 172°
2026-04-21 15:28 51.51778 -2.95173 4487 ft 262 kts 173°
2026-04-21 15:28 51.49987 -2.95100 3999 ft 257 kts 173°
2026-04-21 15:29 51.48266 -2.95039 3921 ft 240 kts 173°
2026-04-21 15:29 51.46649 -2.94983 3796 ft 226 kts 172°
2026-04-21 15:29 51.45112 -2.94928 3714 ft 217 kts 171°
2026-04-21 15:29 51.43613 -2.94869 3627 ft 212 kts 172°
2026-04-21 15:30 51.42173 -2.94813 3531 ft 203 kts 171°
2026-04-21 15:30 51.40795 -2.94666 3431 ft 193 kts 161°
2026-04-21 15:30 51.39567 -2.93945 3145 ft 183 kts 142°
2026-04-21 15:30 51.38667 -2.92805 3012 ft 166 kts 126°
2026-04-21 15:31 51.38075 -2.91509 2869 ft 147 kts 113°
2026-04-21 15:31 51.37722 -2.90074 2727 ft 133 kts 100°
2026-04-21 15:31 51.37607 -2.88627 2563 ft 130 kts 88°
2026-04-21 15:32 51.37658 -2.87194 2399 ft 129 kts 84°
2026-04-21 15:32 51.37716 -2.85762 2223 ft 130 kts 85°
2026-04-21 15:32 51.37774 -2.84327 2047 ft 129 kts 85°
2026-04-21 15:32 51.37832 -2.82893 1867 ft 130 kts 85°
2026-04-21 15:33 51.37890 -2.81453 1682 ft 130 kts 85°
2026-04-21 15:33 51.37947 -2.80021 1519 ft 130 kts 85°
2026-04-21 15:33 51.38003 -2.78592 1330 ft 129 kts 86°
2026-04-21 15:33 51.38060 -2.77150 1154 ft 129 kts 84°
2026-04-21 15:34 51.38117 -2.75725 964 ft 129 kts 86°
2026-04-21 15:34 51.38172 -2.74311 794 ft 129 kts 85°
2026-04-21 15:34 51.38239 -2.72860 623 ft 127 kts 87°
2026-04-21 15:34 51.38276 -2.71767 616 ft 55 kts 86°
2026-04-21 15:35 51.38318 -2.71455 621 ft 1 kts 359°
2026-04-21 15:35 51.38348 -2.71474 620 ft 11 kts 330°
2026-04-21 15:35 51.38456 -2.71539 621 ft 19 kts 359°
2026-04-21 15:35 51.38544 -2.71535 613 ft 2 kts 357°